User: anonymous   Login
Location: Unspecified
(0.0000°N, 0.0000°E)
Time: 11:22:29
(UTC+00:00)
Language:

ESTCUBE 1 - Orbit

View from above orbital plane
View from above orbital plane
View from above satellite
View from above satellite

Ground track
Ground track

The orbit data is extracted from the following two-line orbital elements,

1 39161U 13021C   19342.15069421  .00000092  00000-0  22306-4 0  9992
2 39161  97.9785  63.9324 0010328 129.6946 230.5179 14.72257802353742
Epoch (UTC): 08 December 2019 03:36:59
Eccentricity: 0.0010328
inclination: 97.9785°
perigee height: 646 km
apogee height: 661 km
right ascension of ascending node: 63.9324°
argument of perigee: 129.6946°
revolutions per day: 14.72257802
mean anomaly at epoch: 230.5179°
orbit number at epoch: 35374

The dashed part of the orbit path shows where the satellite is in the earth's shadow,  

DLR